Flag for Gaza Strip Weather past 2 weeks in Gaza, Gaza Strip

Now
84 °F

Clear.


Feels Like: 83 °F
Forecast: 69 / 77 °F
Wind: 1 mph from North

Location: Ben Gurion International Airport

Current Time: May 28, 2015 at 3:58:29 AM

Latest Report: May 28, 2015 at 3:20 AM


Visibility: 10 mi

Pressure: 29.71 "Hg

Humidity: 37%

Dew point: 55 °F

Location of GazaLocation

Historic Weather in Gaza — Graph

°F

Gaza temperature yesterday

Maximum temperature yesterday: 109 °F (at 4:20 PM)
Minimum temperature yesterday: 66 °F (at 6:20 AM)
Average temperature yesterday: 91 °F

Past Weeks' High & Low Weather Summary

 TemperatureHumidityPressure
High109 °F (May 27, 4:20 PM)83% (May 13, 2:20 AM)30.18 "Hg (May 13, 2:20 AM)
Low59 °F (May 16, 4:50 AM)6% (May 18, 12:20 PM)29.65 "Hg (May 27, 4:50 PM)
Average77 °F52%29.91 "Hg
* Reported May 13 2:20 AM — May 28 2:20 AM, Gaza, Weather by CustomWeather, © 2015

Note: Actual official high and low records may vary slightly from our data, if they occured in-between our weather recording intervals... More about our weather records

Advertising

Gaza weather history for previous 24 hours

 ConditionsComfort  
Time TempWeatherWind HumidityBarometerVisibility
2:20 AM
Thu, May 28
86 °FClear.7 mph38%29.74 "Hg10 mi
1:50 AM84 °FClear.5 mph40%29.74 "Hg10 mi
1:20 AM86 °FClear.2 mph35%29.74 "Hg10 mi
12:50 AM86 °FClear.3 mph35%29.74 "Hg10 mi
12:20 AM86 °FClear.9 mph35%29.74 "Hg10 mi
11:50 PM
Wed, May 27
88 °FClear.6 mph31%29.74 "Hg10 mi
11:20 PM88 °FClear.6 mph31%29.74 "Hg10 mi
10:50 PM88 °FClear.6 mph31%29.74 "Hg10 mi
10:20 PM90 °FClear.8 mph29%29.74 "Hg10 mi
9:50 PM90 °FClear.6 mph29%29.74 "Hg10 mi
9:20 PM90 °FClear.10 mph33%29.71 "Hg10 mi
8:50 PM97 °FClear.15 mph20%29.71 "Hg10 mi
8:20 PM100 °FSunny.3 mph20%29.65 "Hg10 mi
7:50 PM102 °FSunny.3 mph17%29.65 "Hg10 mi
7:20 PM104 °FSunny.3 mph15%29.65 "Hg10 mi
6:50 PM106 °FSunny.5 mph14%29.65 "Hg10 mi
6:20 PM108 °FSunny.5 mph13%29.65 "Hg10 mi
5:50 PM108 °FSunny.3 mph13%29.65 "Hg10 mi
5:20 PM109 °FSunny.3 mph12%29.65 "Hg10 mi
4:50 PM109 °FPassing clouds.7 mph12%29.65 "HgN/A
4:20 PM109 °FPassing clouds.8 mph13%29.68 "HgN/A
3:50 PM106 °FPassing clouds.7 mph14%29.68 "HgN/A
3:20 PM104 °FSunny.13 mph14%29.71 "Hg10 mi
2:50 PM106 °FSunny.13 mph14%29.71 "Hg10 mi
2:20 PM106 °FSunny.10 mph15%29.71 "Hg10 mi
1:50 PM104 °FSunny.8 mph16%29.71 "Hg10 mi
1:20 PM104 °FSunny.13 mph16%29.74 "Hg10 mi
12:50 PM106 °FPassing clouds.9 mph15%29.74 "HgN/A
12:20 PM106 °FSunny.10 mph13%29.74 "Hg10 mi
11:50 AM106 °FPassing clouds.8 mph13%29.77 "HgN/A
11:20 AM104 °FSunny.3 mph13%29.77 "Hg10 mi
10:50 AM100 °FSunny.6 mph15%29.77 "Hg10 mi
10:20 AM97 °FSunny.2 mph20%29.80 "Hg10 mi
9:50 AM93 °FSunny.1 mph24%29.80 "Hg10 mi
9:20 AM88 °FSunny.2 mph29%29.80 "Hg10 mi
8:50 AM84 °FSunny.1 mph31%29.83 "Hg10 mi
8:20 AM81 °FSunny.1 mph37%29.83 "Hg10 mi
7:50 AM77 °FSunny.2 mph42%29.83 "Hg10 mi
7:20 AM73 °FSunny.1 mph47%29.83 "Hg10 mi
6:20 AM66 °FClear.5 mph60%29.80 "Hg10 mi
5:50 AM70 °FClear.2 mph50%29.80 "Hg10 mi
5:20 AM70 °FClear.3 mph53%29.80 "Hg10 mi
4:50 AM72 °FClear.7 mph50%29.80 "Hg10 mi
4:20 AM70 °FClear.8 mph57%29.83 "Hg10 mi
3:50 AM70 °FClear.7 mph57%29.83 "Hg10 mi
3:20 AM70 °FClear.1 mph69%29.86 "Hg10 mi
Weather by CustomWeather, © 2015

See weather overviewHow to use our weather pages